Location: G�ndlingen
(48.0142°N, 7.6396°E)
Time: 02:47:13
(UTC+00:00)

ATLAS 2AS CENTAUR R/B - Pass Details

Date: 05 July 2020
Orbit: 930 x 1282 km, 63.7° (Epoch: 19 July)

Event Time Altitude Azimuth Distance (km) Brightness Sun altitude
Rises 20:40:23 0° 315° (NW) 4,224 8.1 -9.3°
Reaches altitude 10° 20:43:30 10° 323° (NW) 3,223 6.9 -9.6°
Maximum altitude 20:50:44 40° 31° (NNE) 1,683 3.9 -10.4°
Drops below altitude 10° 20:57:28 10° 100° (E) 2,995 4.6 -11.1°
Enters shadow 20:58:54 - 104° (ESE) 3,454 4.9 -11.2°
